Location: *
(60.1759°S, 155.0663°W)
Time: 01:38:11
(UTC+00:00)

Cosmos 2266 Rocket - Pass Details

Date: 17 September 2019
Orbit: 935 x 1008 km, 82.9° (Epoch: 20 October)

Event Time Altitude Azimuth Distance (km) Brightness Sun altitude
Rises 14:59:48 0° 194° (SSW) 3,784 7.1 -11.1°
Reaches altitude 10° 15:02:27 10° 199° (SSW) 2,827 6.4 -10.8°
Maximum altitude 15:08:35 46° 269° (W) 1,347 4.4 -10.1°
Drops below altitude 10° 15:14:37 10° 339° (NNW) 2,773 6.1 -9.3°
Sets 15:17:13 0° 345° (NNW) 3,706 6.8 -9.0°
